Skip Page Navigation
NASA JPL Caltech
NASA Logo - Jet Propulsion Laboratory + View the NASA Portal
+ Near-Earth Object (NEO) Program
Search JPL
JPL Home Earth Solar System Stars & Galaxies Technology
JPL Solar System Dynamics
BODIES ORBITS EPHEMERIDES TOOLS PHYSICAL DATA DISCOVERY FAQ SITE MAP
JPL Small-Body Database Browser
Search: [ help ]  
58166 (1990 OF3)
Classification: Main-belt Asteroid          SPK-ID: 2058166
Ephemeris | Orbit Diagram | Orbital Elements | Physical Parameters | Discovery Circumstances | Close-Approach Data ]

[ show orbit diagram ]
Orbital Elements at Epoch 2457000.5 (2014-Dec-09.0) TDB
Reference: JPL 8 (heliocentric ecliptic J2000)
 Element Value Uncertainty (1-sigma)   Units 
e .2795215436192351 7.9867e-08  
a 3.142913496418177 3.3779e-08 AU
q 2.264401464437641 2.4307e-07 AU
i 11.8360491569286 1.0012e-05 deg
node 289.3149590911778 4.1669e-05 deg
peri 37.56579149833399 4.5815e-05 deg
M 140.4978164271591 1.8736e-05 deg
tp 2456206.237346002469
(2012-Oct-05.73734600)
9.9763e-05 JED
period 2035.153020241803
5.57
3.281e-05
8.983e-08
d
yr
n .1768908757323945 2.8518e-09 deg/d
Q 4.021425528398713 4.3221e-08 AU
  Orbit Determination Parameters
   # obs. used (total)      371  
   data-arc span      8580 days (23.49 yr)  
   first obs. used      1990-07-25  
   last obs. used      2014-01-20  
   planetary ephem.      DE431  
   SB-pert. ephem.      SB431-BIG16  
   condition code      0  
   fit RMS      .57873  
   data source      ORB  
   producer      Otto Matic  
   solution date      2014-Jun-10 09:47:58  

Additional Information
 Earth MOID = 1.26566 AU 
 T_jup = 3.116 
[ show covariance matrix ]

Ephemeris | Orbit Diagram | Orbital Elements | Physical Parameters | Discovery Circumstances | Close-Approach Data ]

Physical Parameter Table
Parameter Symbol Value Units Sigma Reference Notes
absolute magnitude H 14.1 mag n/a MPO267893  

58166 (1990 OF3)          Discovered 1990-Jul-29 by Holt, H. E. at Palomar (675)
Reference: 20030614/Numbers.arcLast Updated: 2004-04-19

[ show close-approach data ]
Alternate Designations
 1990 OF3 = 2001 ML7 
Ephemeris | Orbit Diagram | Orbital Elements | Physical Parameters | Discovery Circumstances | Close-Approach Data ]
ABOUT SSD CREDITS/AWARDS PRIVACY/COPYRIGHT GLOSSARY LINKS
FirstGov 2014-Oct-31 22:14 UT
(server date/time)  
NASA Home Page
Site Manager:   Donald K. Yeomans
Webmaster  Alan B. Chamberlin